RH
36 51 66 72 66 70 57 83 100 94 81 75 62 67 60 36 27 83 100 62 97 98 83 88 76 42 29 50 90 100 100 100 100 100 100 100 100 100 100 100 100 100 100 99 85 96 100
40 79 64 43 60 98 100 100 100 100 100 98 94 86 69 51 25 35 76 78 70 100 100 100 100 84 59 30 46 72 90 100 100 100 98 97 100 100 94 89 100 96 78 84 74 100 100
64 47 40 34 92 92 100 100 100 100 100 100 100 85 60 38 34 26 45 59 78 84 100 100 100 100 89 50 39 39 49 87 100 92 96 100 99 93 100 100 96 99 87 99 100 100 100
37 30 30 47 74 97 100 100 99 99 100 96 69 61 46 36 26 26 31 47 77 98 100 100 99 100 100 89 55 43 48 48 67 99 100 100 100 100 100 100 100 100 100 100 100 100 93
32 30 39 67 84 100 100 100 100 100 93 71 64 41 38 35 28 26 33 36 69 96 99 100 71 96 100 100 97 76 46 46 61 55 77 98 100 100 100 100 100 100 100 100 100 98 100
30 40 50 83 100 100 97 100 100 80 63 41 34 30 28 28 32 27 33 50 52 81 100 100 100 73 96 100 100 98 69 53 53 60 56 50 60 74 90 100 100 92 65 92 100 100 100
52 52 58 96 100 75 92 76 63 46 34 29 23 22 24 28 30 32 46 50 90 100 100 100 93 89 91 100 100 100 100 75 51 61 70 63 49 50 41 40 60 92 100 93 88 100 100
75 57 81 92 100 88 67 50 32 21 17 17 18 18 21 24 27 28 48 70 96 99 100 98 100 81 100 100 100 100 100 68 78 74 63 59 55 51 44 38 30 31 44 98 100 100 89
80 81 91 90 94 68 36 20 16 16 15 15 16 17 18 22 24 28 38 66 76 100 100 100 82 97 92 100 100 100 100 99 99 89 77 73 66 61 55 39 31 26 24 25 62 97 97
98 70 82 100 91 43 18 15 14 12 10 9 10 12 14 17 21 26 28 54 75 95 90 99 100 100 100 100 97 100 100 100 96 75 72 58 61 66 62 43 31 27 24 25 23 33 72
77 77 74 86 44 19 16 14 12 9 8 8 8 9 10 13 18 22 27 35 64 78 94 98 100 97 91 99 100 100 100 100 100 92 70 74 61 57 59 44 34 26 26 25 23 22 24
62 81 82 64 28 17 16 14 10 8 8 8 8 7 8 10 15 19 23 27 45 75 86 96 98 100 86 75 87 100 100 100 100 100 87 61 66 62 58 46 34 29 25 28 25 24 21
95 78 65 40 19 18 19 15 9 9 9 10 8 8 9 9 12 16 21 25 38 55 92 100 100 100 100 97 85 100 100 100 100 100 98 80 70 66 50 39 35 30 27 26 27 23 22
100 69 59 22 18 21 20 14 10 12 11 10 9 8 9 11 12 15 20 24 25 43 92 100 100 100 100 100 100 100 100 100 100 100 96 84 73 62 44 37 36 30 27 24 26 25 28
83 86 36 20 20 22 20 14 11 14 14 11 11 10 10 10 12 12 16 21 24 26 57 100 100 100 100 100 100 100 100 100 100 88 87 76 59 54 41 34 30 27 25 27 28 26 28
100 68 24 21 23 23 21 14 12 18 16 15 13 12 14 14 13 13 18 21 23 23 29 42 95 100 100 100 100 100 100 100 100 90 76 57 49 41 37 30 27 29 29 28 27 28 32
94 40 24 24 24 23 23 16 14 21 21 19 18 16 16 17 16 17 18 17 19 23 23 28 32 75 100 100 100 93 96 100 84 78 70 59 52 39 32 28 29 29 27 28 33 31 45
70 33 30 29 26 25 23 20 15 22 30 28 22 27 25 24 19 21 19 19 20 19 21 24 28 30 42 62 69 76 84 72 53 49 49 52 44 30 30 28 28 26 28 33 35 54 74
71 42 30 30 28 27 25 24 18 18 32 37 31 42 38 29 26 26 24 22 21 19 20 23 23 25 29 36 38 38 38 40 43 39 37 42 35 27 26 27 29 30 41 41 49 69 67
59 50 30 31 30 28 27 30 23 20 24 44 50 50 58 57 38 32 30 33 30 25 23 23 22 22 24 25 25 27 28 31 34 32 31 31 27 27 29 31 34 34 47 62 72 55 92
54 39 32 31 31 30 30 32 26 23 23 35 54 74 75 74 66 54 46 40 37 39 37 30 26 26 25 24 26 27 28 28 31 33 32 32 34 29 31 33 38 47 50 65 75 100 82
67 47 37 31 30 31 30 33 33 24 24 24 47 74 87 85 97 75 74 65 63 65 57 46 40 31 33 33 38 37 41 39 36 43 52 52 49 47 46 38 39 46 50 66 79 95 92
69 44 42 32 33 32 30 33 32 25 23 21 25 55 79 84 87 94 86 86 83 89 85 79 74 68 66 67 72 70 75 77 83 93 82 65 80 85 65 59 38 34 71 81 91 98 97
38 54 42 30 33 33 30 32 33 26 22 20 19 20 45 72 90 89 84 88 100 94 91 96 93 92 97 100 97 95 100 100 98 99 100 100 99 99 93 83 50 60 79 85 89 97 100
37 43 45 30 33 34 31 31 30 26 20 19 18 18 23 41 63 76 87 86 81 86 100 100 97 98 100 100 96 98 100 100 100 100 100 100 99 96 81 69 56 74 99 100 99 100 93
43 44 54 34 36 36 31 32 29 25 19 17 16 16 17 22 30 57 66 84 87 90 82 92 98 97 100 99 98 99 97 100 100 100 100 100 100 100 92 78 78 100 93 100 100 100 100
41 47 38 37 40 41 34 35 35 32 20 16 15 15 16 18 20 22 44 62 74 81 89 91 95 100 95 97 100 95 89 96 100 100 100 98 100 100 100 90 97 100 100 100 88 99 100
42 46 43 42 46 45 37 34 34 30 22 17 16 15 15 17 19 19 20 26 45 64 81 85 87 98 100 100 99 98 91 94 100 100 100 100 100 100 98 91 100 100 100 100 100 100 100
51 52 45 43 46 46 41 34 33 28 19 16 16 15 15 15 16 17 18 19 23 29 56 75 86 80 83 94 100 99 99 93 99 100 98 99 97 98 91 93 92 85 96 100 100 100 100
Wind_Speed
52 54 46 51 55 58 54 54 56 55 54 53 48 53 55 53 46 48 43 46 40 38 38 34 33 33 44 57 69 70 67 69 72 73 68 69 71 71 69 67 68 67 66 64 62 60 54
53 47 55 58 60 58 56 58 60 57 59 56 54 55 58 57 47 51 51 50 49 40 41 43 39 36 33 39 55 65 73 74 72 72 73 74 73 74 74 71 66 67 65 65 64 62 53
55 61 63 62 60 57 61 64 61 58 56 59 60 64 63 62 53 51 54 53 52 50 45 42 45 43 42 38 38 43 47 60 71 75 75 78 78 77 76 73 71 70 69 67 66 66 60
62 72 64 58 59 60 63 62 64 63 66 64 70 75 71 72 58 48 57 58 55 53 49 49 50 44 47 42 40 40 41 41 49 53 67 75 78 81 79 78 76 74 72 74 75 72 70
74 79 66 63 61 65 65 63 68 73 78 78 81 79 78 75 62 48 55 61 58 61 54 53 55 49 49 49 43 41 42 44 40 40 43 54 62 70 77 81 83 85 84 82 79 78 74
75 78 70 63 65 68 67 70 75 79 83 86 92 88 79 72 61 51 52 60 61 61 60 55 52 59 51 54 53 46 42 46 44 44 41 39 41 49 58 64 73 82 80 80 80 80 80
81 78 70 66 67 72 77 83 86 93 94 95 89 81 77 69 64 54 56 61 56 63 65 63 59 60 59 53 53 54 50 48 47 45 45 44 43 43 47 54 65 69 76 81 80 80 84
84 81 70 72 75 83 88 94 100 96 89 83 80 75 72 70 64 58 57 64 65 65 63 63 62 61 60 56 55 54 57 51 51 50 50 45 42 49 49 52 52 60 67 72 78 81 82
87 80 78 78 85 92 99 99 89 85 82 77 75 74 72 70 68 64 60 69 68 73 70 66 64 62 65 62 57 57 62 61 56 54 53 51 50 48 50 54 54 56 60 66 74 78 77
86 84 81 88 93 99 99 88 78 71 67 65 66 67 69 69 69 69 67 67 72 69 71 65 66 63 65 69 58 61 65 66 60 59 60 55 56 55 55 55 57 56 59 61 61 68 72
90 84 85 92 99 100 92 83 74 67 58 54 54 56 60 65 69 72 73 69 75 71 69 67 64 59 62 69 62 62 71 67 66 66 63 61 62 59 59 59 60 56 59 61 62 64 65
89 88 94 101 105 98 89 85 76 63 53 47 46 47 48 57 66 73 73 73 72 79 66 65 66 64 64 65 64 69 75 72 69 68 69 67 64 64 63 63 65 61 60 61 63 64 59
88 93 98 104 100 93 89 83 73 61 49 44 41 40 43 47 58 69 74 76 77 76 72 73 73 70 72 72 70 75 78 75 71 69 69 70 68 68 67 66 67 64 63 61 64 65 55
93 95 101 102 96 91 86 79 67 57 48 41 36 33 35 41 48 62 73 79 79 73 82 80 82 81 79 79 80 84 81 76 73 73 73 73 73 71 69 68 70 67 63 62 63 61 56
93 99 103 101 98 88 83 75 63 51 44 40 34 30 30 33 43 49 66 79 80 79 86 88 89 89 85 80 83 84 83 82 77 77 77 79 78 75 73 73 72 67 62 63 64 61 57
96 99 103 101 94 85 79 70 58 49 43 38 31 26 24 26 32 41 52 69 80 82 83 89 91 89 87 86 85 86 88 84 82 82 84 83 77 76 76 74 71 67 65 64 63 60 57
94 100 100 97 89 82 76 68 56 48 41 37 34 25 22 23 26 32 43 56 68 80 82 85 88 92 92 93 91 91 89 87 89 86 87 85 82 78 77 74 72 68 65 65 64 61 56
96 99 100 98 86 79 75 63 56 49 42 37 34 27 23 21 22 27 35 42 53 65 76 83 87 87 93 94 94 94 91 88 89 89 89 88 84 79 77 74 71 67 64 64 64 62 61
96 100 103 99 86 77 74 67 55 49 41 37 33 26 25 22 21 20 24 31 40 48 58 71 79 84 89 91 91 90 90 90 91 90 89 87 83 80 75 70 65 63 62 63 66 66 62
95 99 100 94 84 76 73 68 61 53 45 37 32 27 26 24 19 18 18 21 27 36 44 51 62 72 79 83 85 86 85 86 86 87 88 85 81 74 68 65 64 62 62 65 68 63 61
91 96 94 88 79 74 72 70 63 54 49 42 35 29 27 23 22 21 19 19 20 25 31 40 47 53 59 65 67 71 75 77 77 79 78 73 69 69 64 63 62 60 63 67 67 67 66
91 93 94 87 78 74 72 70 66 56 49 45 37 33 29 24 21 23 21 21 20 21 25 28 36 41 46 50 55 59 61 64 68 69 68 67 64 63 61 62 63 61 62 66 68 69 66
89 90 91 88 79 74 72 69 66 57 51 46 41 36 33 29 27 28 28 24 23 24 23 24 30 32 37 41 46 49 50 53 54 56 59 62 59 59 58 61 63 59 60 66 70 71 70
86 87 89 88 81 75 72 69 65 59 55 47 42 40 37 36 35 34 32 30 29 29 26 26 27 28 32 35 41 43 46 51 53 54 54 56 54 54 54 56 56 54 57 61 67 73 72
86 87 88 88 79 75 73 71 68 63 58 47 39 39 40 41 40 40 39 39 39 34 33 34 35 35 36 41 45 44 45 45 47 50 51 52 53 54 57 56 53 49 55 60 61 64 71
84 87 90 88 81 78 76 75 73 66 60 47 41 38 39 41 43 46 46 45 44 43 41 40 42 44 44 45 46 48 48 50 48 47 50 50 50 53 54 54 51 52 58 60 64 59 63
84 88 84 87 80 78 78 77 76 73 63 54 43 40 39 41 46 45 50 52 50 49 50 47 45 46 45 47 49 51 51 53 53 55 55 56 56 56 56 57 54 54 58 61 62 68 71
86 87 84 85 80 79 80 79 77 73 66 57 50 47 44 43 47 49 50 53 56 56 55 56 54 53 51 49 50 53 55 55 54 57 60 60 59 58 60 60 57 63 63 64 65 68 72
86 90 84 86 84 82 83 83 80 77 66 57 54 51 48 48 50 50 52 53 56 59 62 61 60 63 59 58 57 56 55 57 59 63 65 66 66 67 67 66 68 71 69 71 70 71 73
Wind_Direction
315 315 315 316 312 312 311 310 310 308 305 304 308 313 317 322 263 248 254 252 245 253 253 255 256 259 251 248 246 243 246 244 243 244 245 246 247 247 248 251 252 256 255 259 264 259 260
317 311 317 314 310 311 308 306 307 304 301 301 300 304 311 313 289 253 247 248 244 244 250 257 255 254 257 253 253 249 247 246 245 246 246 249 249 250 253 252 253 254 256 257 257 255 253
315 315 309 311 309 309 307 303 302 300 296 297 298 304 306 311 306 264 250 245 243 241 248 250 254 251 249 249 253 246 247 247 247 249 249 250 249 249 248 251 252 253 252 254 255 253 255
320 322 321 305 305 310 308 303 304 300 295 296 302 305 304 308 303 280 255 246 241 241 242 245 251 259 245 243 249 249 248 243 243 241 246 246 247 248 251 251 250 250 253 253 255 255 257
322 324 319 307 309 310 304 300 303 302 303 302 302 303 301 299 296 280 262 250 239 239 239 242 244 249 247 246 245 250 252 247 244 243 244 241 244 249 250 251 251 252 252 252 256 256 257
322 325 318 309 311 306 305 301 299 301 301 302 300 297 293 288 284 276 261 250 244 236 239 237 248 245 246 249 248 255 255 251 251 249 245 246 246 249 248 250 252 253 254 257 254 256 255
325 325 318 311 307 306 304 306 305 303 300 297 294 288 286 277 275 265 254 250 238 235 241 236 236 242 247 249 254 259 258 253 254 257 254 256 256 261 257 255 250 253 253 255 255 254 255
325 324 318 314 310 309 311 309 305 303 299 293 288 281 275 270 265 260 248 245 240 239 243 240 239 241 244 246 255 260 258 257 256 256 257 261 263 264 264 265 262 254 250 253 252 252 255
321 322 316 315 316 316 314 312 307 301 295 288 281 275 269 262 258 254 245 240 239 237 237 242 237 240 246 242 250 257 261 256 258 260 260 261 263 272 274 271 268 262 255 252 251 255 256
320 319 319 319 314 314 316 312 307 302 297 289 278 269 263 257 251 246 243 236 236 237 234 236 237 237 239 242 244 257 258 257 256 258 260 264 267 272 274 275 270 269 265 258 255 252 253
321 320 319 315 317 321 318 319 317 314 308 295 282 270 260 252 245 240 238 233 233 233 230 234 234 236 239 240 237 249 255 258 256 259 263 264 267 270 274 277 274 267 267 261 256 254 253
321 320 320 319 323 325 326 326 323 321 313 301 289 277 263 250 242 238 235 234 229 230 227 230 232 237 238 237 237 247 252 255 259 260 263 267 268 270 273 274 275 271 269 263 259 256 255
321 320 322 323 329 330 330 328 326 324 319 311 296 282 266 255 242 238 233 231 229 225 226 226 229 236 243 243 242 243 248 253 256 258 262 263 266 270 271 271 274 273 268 263 258 259 258
320 322 323 326 332 334 331 330 328 325 324 319 306 290 270 253 245 237 233 230 231 223 226 225 226 231 236 237 239 241 247 254 258 259 260 265 267 269 270 271 273 271 269 265 260 259 254
319 322 325 330 334 335 334 332 329 326 326 322 315 301 282 261 247 242 234 232 230 226 226 226 228 234 238 238 240 244 248 253 258 261 263 263 265 268 269 270 271 272 269 262 257 255 253
322 324 329 332 336 335 336 335 330 330 329 327 319 311 293 275 261 245 237 234 234 232 228 230 230 234 239 241 244 246 249 252 257 260 261 263 264 267 269 269 270 270 265 259 257 255 248
323 326 331 335 335 336 340 338 333 331 332 330 327 318 303 281 265 252 244 239 236 236 236 233 232 234 237 240 244 247 249 253 256 257 260 261 263 264 266 267 267 265 261 255 252 251 246
323 328 331 335 336 338 341 341 336 333 331 327 331 328 316 300 279 264 252 243 239 238 238 237 238 238 238 239 241 245 248 251 255 257 259 260 261 264 265 265 264 263 260 253 251 244 241
323 328 331 336 335 338 342 343 340 335 330 325 327 325 322 309 298 279 266 255 247 242 240 240 240 241 242 244 245 247 249 252 254 257 259 259 261 262 263 263 261 257 253 251 245 241 242
325 327 332 336 334 337 342 343 341 337 333 326 323 318 315 311 306 293 277 264 255 248 244 241 242 241 243 246 247 248 248 250 252 254 256 259 262 260 259 256 255 252 246 244 243 244 240
327 329 333 336 334 337 341 342 341 336 331 325 321 313 310 307 303 297 288 270 259 259 253 248 245 242 243 243 245 247 247 249 249 252 255 255 255 256 254 251 247 246 242 241 241 239 240
327 328 331 333 333 337 341 341 339 336 330 321 313 304 297 295 288 293 289 285 277 267 262 260 252 245 241 240 240 242 242 244 246 246 248 252 252 253 251 248 244 242 244 241 240 241 239
327 330 331 333 333 337 340 342 340 335 329 320 309 300 290 284 280 282 282 277 274 268 261 257 255 247 240 237 238 240 241 244 246 250 254 253 251 250 249 248 248 244 241 241 239 239 241
325 328 331 331 333 335 338 340 340 335 330 320 307 301 290 280 275 271 272 269 270 269 264 257 255 251 246 244 241 241 241 241 244 247 248 249 248 249 250 248 247 244 243 245 244 241 243
325 328 331 330 331 335 337 338 339 336 333 323 309 298 294 285 277 272 267 267 269 255 255 258 256 250 245 247 244 245 245 246 246 243 244 245 247 249 248 246 246 243 248 245 246 246 246
326 325 330 331 333 336 336 339 340 338 334 325 312 302 291 287 283 276 271 265 262 260 255 252 251 250 251 248 245 244 241 239 240 244 243 244 249 256 256 250 244 247 248 246 243 246 249
325 326 330 333 334 337 337 338 338 337 334 326 316 304 295 287 283 280 272 269 265 260 255 254 251 253 253 250 250 247 243 242 243 241 241 243 247 251 253 245 247 246 247 249 248 246 249
322 328 329 333 334 336 336 336 335 335 330 325 317 310 300 292 285 280 274 270 266 262 258 255 252 251 252 254 252 249 247 242 243 242 241 246 251 252 253 248 247 245 247 247 247 248 250
323 328 330 332 333 334 335 335 336 335 329 325 318 312 304 297 290 283 275 269 263 262 259 257 254 252 251 249 249 251 251 249 249 246 244 247 249 250 250 249 250 246 248 249 249 249 250